Wind_Speed
16 15 15 14 14 12 11 10 10 9 8 8 7 7 7 7 7 6 6 6 7 7 7 7 8 8 9 10 11 12 13 15 16 18 19 20 19 18 17 17 16 17
18 17 17 16 15 14 13 12 12 11 10 10 9 8 9 8 8 8 7 7 8 8 8 8 8 8 9 10 11 12 13 14 16 17 19 20 19 18 17 16 16 16
20 19 19 18 17 16 15 15 15 14 13 12 11 11 11 10 10 9 9 9 9 9 9 8 8 8 9 10 11 12 13 14 15 17 18 19 19 18 17 16 15 16
21 21 21 20 19 18 18 18 18 17 16 14 14 14 13 12 12 11 11 10 10 10 10 9 9 9 9 10 11 12 13 14 15 17 18 19 19 19 18 17 16 15
22 22 22 21 21 21 21 21 20 19 18 17 17 16 15 14 14 13 13 12 12 12 12 11 10 9 10 11 12 13 13 14 15 16 18 19 19 19 18 17 16 15
23 23 23 23 23 23 23 22 22 21 20 19 19 19 17 16 16 15 14 14 14 13 13 13 12 11 11 12 13 13 13 14 16 16 17 18 19 19 19 18 17 15
25 24 24 24 24 24 24 23 23 23 22 21 21 20 19 18 17 16 16 15 15 15 15 14 14 13 12 13 14 14 14 14 15 16 17 18 18 19 19 18 17 16
24 25 25 25 25 25 25 25 25 24 23 23 23 22 21 20 19 18 17 17 16 16 16 16 15 15 14 14 15 15 15 15 15 16 17 17 17 18 18 18 18 17
23 24 25 26 27 26 26 26 26 25 25 24 24 23 23 22 21 20 19 19 18 18 17 17 17 16 16 16 16 16 16 16 15 16 16 17 16 17 17 17 17 17
22 24 25 26 27 27 27 27 27 27 26 25 25 24 24 23 22 22 21 20 20 19 19 19 18 18 18 17 17 17 17 17 16 16 16 17 17 16 16 17 17 17
22 23 25 26 27 27 28 28 28 28 27 26 26 25 24 24 23 23 22 21 22 22 21 21 20 19 19 19 19 18 19 19 18 17 17 17 17 17 16 17 17 17
21 23 25 27 28 27 27 28 29 29 29 28 27 26 25 24 24 24 23 22 23 23 23 23 22 21 21 21 20 20 20 20 20 19 18 18 18 18 17 17 17 18
21 22 24 26 27 27 26 27 29 29 29 29 28 28 27 26 26 25 24 23 24 25 25 25 23 22 22 22 22 22 22 22 21 21 20 20 20 20 19 18 18 18
22 21 22 23 25 26 26 27 29 30 30 30 30 30 29 28 28 27 25 25 25 27 27 26 25 23 23 23 24 24 24 24 23 23 22 22 22 21 21 20 19 19
22 22 21 22 23 25 27 28 29 30 31 31 31 32 31 30 30 29 28 27 27 28 29 28 26 25 24 24 25 26 26 25 25 25 24 24 23 23 23 22 21 21
22 22 21 22 23 25 26 28 29 30 31 31 33 33 33 32 32 31 30 29 29 30 30 30 28 26 25 26 27 27 27 27 26 26 26 26 25 25 25 24 23 23
23 23 22 23 23 25 26 28 30 31 31 32 33 34 34 34 34 33 33 32 32 32 32 31 30 28 27 27 28 29 29 28 28 28 28 27 26 26 26 26 26 25
24 24 24 24 24 25 27 28 30 31 32 33 34 34 34 34 35 35 35 34 34 34 34 33 32 30 29 29 30 31 31 31 30 30 29 29 28 28 28 28 28 27
26 26 26 26 26 26 26 28 30 32 33 35 35 34 34 35 35 36 36 36 36 36 35 35 34 33 33 32 32 33 33 33 33 32 31 31 30 30 30 30 30 30
28 28 28 27 27 27 27 28 30 32 33 35 35 36 36 36 37 36 36 36 36 37 37 36 36 36 36 35 35 35 36 36 36 35 34 34 33 33 33 32 32 31
31 31 30 29 29 29 28 29 31 32 33 35 36 37 38 38 38 37 37 37 37 38 38 37 37 38 38 37 38 38 39 39 40 39 38 37 36 36 35 35 34 33
33 32 31 31 30 30 30 30 32 33 34 35 36 38 39 39 39 38 38 38 37 37 38 37 38 39 39 39 40 41 42 43 43 42 41 40 39 38 38 37 36 35
36 34 33 33 32 32 31 32 33 34 35 36 37 38 39 40 40 40 39 38 37 37 38 38 38 39 40 40 41 42 43 44 45 44 43 42 41 40 39 38 37 36
37 36 35 34 34 34 33 33 33 34 36 37 37 38 40 41 41 41 41 40 39 38 38 39 39 40 41 41 42 43 44 45 45 45 45 43 42 40 39 39 38 38
39 37 37 36 36 35 34 34 34 35 36 37 38 39 41 42 42 43 43 42 41 40 40 40 40 41 42 43 43 43 44 45 46 46 45 43 41 39 39 39 39 39
41 39 39 38 38 37 36 35 35 35 36 37 38 39 41 42 43 43 44 44 44 42 42 42 42 42 43 44 45 44 45 45 46 46 45 43 41 39 39 39 40 41
Wind_Direction
225 222 221 223 226 228 229 229 232 236 243 256 269 281 290 294 299 302 301 299 297 297 298 300 307 316 325 332 337 342 347 353 358 1 3 3 5 9 13 16 18 19
231 231 229 228 228 230 232 235 238 240 244 253 264 274 280 284 289 294 295 294 294 295 296 299 303 310 318 326 331 337 343 350 354 359 1 2 3 6 11 14 15 16
233 235 235 234 233 233 234 237 240 242 245 251 259 266 271 276 280 285 288 289 289 290 292 294 297 304 310 317 324 331 338 344 351 356 359 1 2 4 8 11 12 13
234 236 237 237 237 236 236 239 241 243 246 250 255 260 265 271 276 279 283 286 286 286 287 288 289 293 301 309 317 325 331 338 346 353 358 360 1 2 5 7 8 10
235 237 239 239 238 238 238 240 243 245 247 250 253 257 261 266 270 274 279 282 284 284 283 283 283 286 292 301 309 318 325 331 339 348 355 358 359 359 2 4 5 6
231 235 238 240 240 239 239 241 243 245 247 249 252 255 258 261 265 270 274 277 280 281 280 280 279 280 285 292 302 311 319 325 333 342 350 355 356 356 358 1 2 3
225 228 234 239 242 243 242 242 243 245 246 248 251 255 257 260 263 266 269 273 275 277 277 277 275 276 278 285 294 302 310 318 326 335 343 350 352 352 353 357 359 360
227 227 230 234 239 243 244 244 245 245 246 248 251 254 257 259 262 264 266 268 271 273 274 274 272 272 273 278 286 294 302 310 318 327 335 342 347 347 348 350 354 355
232 234 234 234 236 240 244 246 247 248 247 248 250 252 255 257 260 262 264 266 268 270 271 271 270 270 270 272 278 286 293 300 309 318 326 333 339 341 341 343 347 349
229 236 239 239 238 239 241 244 247 249 249 249 250 251 253 256 258 261 263 265 267 268 268 268 268 268 267 269 273 279 286 292 299 307 315 322 328 332 334 334 336 339
224 230 236 240 241 241 241 242 245 248 250 250 251 251 253 254 256 259 261 263 265 266 266 266 266 267 266 267 270 274 279 285 290 297 304 311 317 323 326 327 326 327
226 226 231 237 242 243 242 243 244 246 248 250 251 252 252 253 254 256 258 260 263 264 264 264 265 266 267 268 269 271 275 279 284 289 295 301 306 311 317 320 319 318
237 233 233 236 240 243 244 244 245 246 248 249 250 251 251 252 252 253 255 258 260 261 262 263 264 265 266 268 268 269 272 276 279 283 288 293 297 302 306 311 313 312
246 245 242 240 240 242 243 243 245 246 246 247 248 250 251 251 252 252 252 255 257 259 261 262 263 264 265 267 268 269 270 273 276 279 282 286 290 294 298 302 306 307
251 253 253 250 246 244 242 241 242 244 245 245 246 247 249 250 251 252 251 252 254 257 259 261 262 263 264 266 267 268 269 271 274 276 278 282 285 289 292 295 299 302
251 254 256 256 253 249 246 243 242 243 244 245 245 246 247 248 250 252 252 251 253 255 258 260 261 262 264 265 266 267 268 270 272 274 276 279 282 284 287 290 293 296
249 252 254 254 254 253 252 248 245 243 243 244 245 245 246 247 248 251 252 253 253 254 257 259 260 262 263 264 265 267 268 269 270 272 274 276 278 280 283 286 289 292
248 250 252 253 253 253 253 252 250 246 244 244 245 245 246 247 247 249 251 252 254 255 257 259 260 261 261 262 264 265 266 267 269 270 272 273 275 277 279 282 285 288
248 250 252 253 254 254 254 254 253 250 247 246 245 245 246 247 248 249 250 251 252 255 257 258 260 260 259 260 261 263 264 266 267 268 269 270 272 274 276 279 282 285
247 248 250 252 254 255 255 254 253 252 251 249 248 247 246 246 247 248 250 251 252 253 255 256 258 259 259 260 261 262 263 264 265 265 266 268 270 272 274 277 280 282
247 249 251 253 255 255 255 254 254 253 252 251 250 248 247 247 247 247 248 250 252 253 254 254 256 257 259 260 261 262 263 263 264 264 266 267 269 271 273 275 277 280
248 250 252 254 255 256 256 255 255 254 253 252 250 249 249 249 248 248 248 249 251 254 255 256 256 257 258 259 261 263 263 264 265 265 266 267 268 270 272 274 276 278
248 250 252 254 256 257 257 258 257 257 256 254 252 250 250 250 249 249 249 250 251 253 255 256 257 258 258 258 260 262 263 264 265 266 266 267 268 270 271 273 275 276
248 250 252 254 257 258 260 261 261 260 258 257 254 252 251 250 250 250 250 250 250 251 253 255 256 257 258 258 259 260 262 263 264 265 266 267 268 270 272 274 275 276
247 249 251 254 256 259 261 263 263 262 261 259 257 255 254 253 251 251 250 250 249 250 252 253 255 255 256 257 257 258 260 261 263 265 267 268 270 272 274 274 275 275
246 248 251 253 256 259 262 264 264 264 262 260 259 258 257 256 255 253 252 252 251 251 251 252 254 254 256 256 257 257 258 260 262 265 267 269 271 272 273 273 274 274
Height
11020 11021 11022 11023 11024 11024 11025 11026 11027 11028 11028 11029 11029 11029 11030 11030 11030 11029 11029 11029 11029 11029 11029 11028 11028 11028 11028 11028 11027 11026 11026 11025 11024 11024 11023 11021 11020 11018 11017 11016 11015 11014
11019 11020 11021 11022 11023 11024 11024 11025 11026 11027 11027 11028 11028 11029 11029 11029 11029 11029 11029 11028 11028 11028 11028 11028 11028 11028 11028 11027 11027 11026 11026 11025 11025 11024 11023 11022 11021 11019 11018 11017 11016 11015
11017 11018 11019 11020 11022 11023 11023 11024 11024 11025 11026 11027 11027 11028 11028 11028 11028 11028 11028 11028 11028 11028 11028 11027 11027 11027 11027 11027 11027 11026 11026 11025 11025 11024 11024 11023 11022 11020 11019 11018 11017 11016
11015 11016 11017 11019 11020 11021 11022 11022 11023 11024 11024 11025 11026 11026 11027 11027 11027 11027 11027 11027 11027 11027 11027 11027 11027 11027 11027 11027 11027 11026 11026 11025 11025 11024 11024 11023 11022 11021 11020 11019 11017 11016
11012 11014 11015 11017 11018 11019 11020 11020 11021 11022 11023 11024 11024 11025 11025 11026 11026 11026 11026 11026 11026 11026 11026 11026 11026 11026 11026 11026 11026 11026 11025 11025 11024 11024 11024 11023 11022 11021 11020 11019 11018 11016
11010 11011 11013 11014 11015 11016 11017 11018 11019 11020 11021 11022 11022 11023 11024 11024 11024 11025 11025 11025 11025 11025 11025 11025 11025 11025 11025 11025 11025 11025 11025 11024 11024 11024 11023 11023 11022 11021 11020 11019 11018 11017
11006 11008 11010 11012 11013 11014 11015 11016 11017 11018 11019 11019 11020 11021 11022 11022 11023 11023 11023 11024 11024 11024 11024 11024 11024 11024 11024 11024 11024 11024 11024 11024 11023 11023 11023 11022 11022 11021 11020 11019 11018 11017
11004 11006 11007 11009 11010 11011 11013 11014 11014 11015 11016 11017 11018 11019 11020 11020 11021 11021 11022 11022 11022 11022 11023 11023 11023 11023 11023 11023 11023 11023 11023 11023 11023 11022 11022 11022 11021 11021 11020 11019 11018 11017
11003 11004 11005 11006 11007 11009 11010 11011 11012 11013 11014 11015 11016 11016 11017 11018 11019 11019 11020 11020 11020 11021 11021 11021 11021 11021 11022 11022 11022 11022 11022 11022 11022 11021 11021 11021 11021 11020 11020 11019 11018 11017
11001 11002 11002 11004 11005 11006 11007 11008 11010 11010 11011 11012 11013 11014 11015 11016 11017 11017 11018 11018 11019 11019 11019 11019 11019 11020 11020 11021 11021 11021 11021 11021 11021 11021 11020 11020 11020 11020 11019 11019 11018 11017
10999 10999 11000 11001 11001 11003 11004 11006 11007 11008 11009 11010 11011 11012 11013 11013 11014 11015 11016 11016 11016 11016 11016 11017 11017 11018 11018 11019 11019 11020 11020 11020 11020 11020 11019 11019 11019 11019 11018 11018 11017 11016
10996 10997 10997 10997 10998 11000 11002 11003 11004 11005 11006 11007 11008 11009 11010 11011 11012 11012 11013 11014 11014 11014 11014 11014 11015 11015 11016 11016 11017 11018 11018 11018 11018 11018 11018 11018 11018 11018 11017 11017 11016 11015
10993 10994 10994 10995 10996 10997 10999 11000 11001 11002 11003 11004 11005 11006 11007 11008 11009 11010 11011 11011 11012 11011 11012 11012 11013 11013 11014 11014 11015 11015 11016 11016 11016 11016 11016 11016 11016 11016 11016 11016 11015 11014
10990 10991 10992 10993 10994 10995 10996 10997 10998 10999 11000 11001 11002 11003 11004 11005 11006 11007 11008 11008 11009 11009 11009 11009 11010 11011 11011 11012 11012 11012 11013 11014 11014 11014 11014 11014 11015 11014 11014 11014 11014 11013
10988 10989 10990 10991 10992 10992 10993 10994 10994 10995 10996 10998 10999 10999 11001 11002 11003 11004 11005 11005 11006 11006 11006 11007 11007 11008 11009 11009 11009 11009 11010 11011 11011 11011 11012 11012 11012 11012 11012 11012 11012 11011
10985 10986 10987 10988 10988 10989 10989 10990 10991 10992 10993 10994 10995 10996 10997 10999 11000 11000 11001 11002 11003 11003 11003 11004 11005 11006 11006 11006 11006 11006 11007 11007 11008 11008 11008 11009 11009 11010 11009 11009 11009 11009
10982 10983 10984 10984 10985 10986 10986 10987 10987 10988 10989 10990 10991 10992 10994 10995 10996 10997 10998 10999 10999 10999 11000 11001 11002 11003 11003 11003 11003 11003 11003 11004 11004 11005 11005 11005 11006 11006 11006 11006 11006 11006
10978 10979 10980 10980 10981 10982 10982 10983 10984 10985 10985 10986 10987 10988 10990 10991 10992 10993 10994 10995 10996 10996 10997 10997 10999 11000 11000 11000 11000 11000 11000 11000 11000 11001 11001 11002 11002 11003 11003 11003 11003 11003
10975 10975 10976 10977 10977 10978 10979 10980 10980 10981 10982 10982 10983 10985 10986 10987 10988 10989 10990 10991 10992 10993 10993 10994 10995 10996 10997 10997 10996 10996 10996 10996 10996 10997 10997 10998 10999 10999 10999 11000 11000 11000
10970 10971 10972 10973 10974 10974 10975 10976 10976 10977 10978 10979 10980 10981 10982 10982 10983 10985 10986 10987 10988 10988 10989 10990 10991 10992 10993 10993 10993 10993 10992 10992 10992 10992 10993 10994 10995 10995 10996 10996 10996 10997
10966 10967 10968 10969 10970 10970 10971 10972 10972 10973 10974 10975 10976 10976 10977 10978 10979 10980 10982 10983 10983 10984 10984 10986 10986 10987 10988 10989 10989 10989 10988 10987 10987 10988 10989 10990 10990 10991 10992 10992 10993 10993
10962 10963 10964 10964 10965 10966 10967 10967 10968 10968 10969 10970 10971 10972 10972 10973 10975 10976 10977 10978 10979 10980 10980 10981 10982 10982 10983 10984 10984 10984 10983 10982 10982 10983 10984 10985 10986 10987 10988 10988 10989 10990
10957 10958 10959 10960 10961 10962 10962 10963 10963 10964 10965 10966 10967 10968 10968 10969 10970 10971 10973 10974 10975 10976 10976 10976 10977 10977 10977 10979 10979 10978 10978 10977 10977 10977 10978 10980 10981 10982 10983 10984 10985 10986
10952 10954 10955 10955 10956 10957 10958 10959 10959 10960 10961 10962 10963 10963 10964 10964 10966 10967 10968 10969 10970 10971 10971 10972 10972 10972 10972 10973 10973 10972 10972 10971 10971 10971 10972 10974 10976 10978 10979 10980 10980 10981
10947 10949 10950 10951 10952 10952 10954 10955 10955 10956 10957 10958 10958 10959 10959 10960 10961 10962 10963 10964 10965 10966 10967 10967 10967 10967 10967 10967 10967 10967 10966 10965 10965 10965 10966 10968 10971 10973 10974 10975 10975 10976
10942 10944 10945 10946 10947 10948 10950 10950 10951 10952 10953 10953 10954 10955 10955 10956 10957 10957 10958 10959 10961 10962 10962 10962 10962 10962 10961 10961 10961 10961 10961 10961 10960 10960 10961 10963 10966 10968 10969 10970 10970 10971